Gefundene Sportergebnisse Reiter: Bertke, Ria

hoeveler tierfutter Verkauf von Dressurpferden aus Hannoveraner Zucht ZG Koehler
Benutzerdefinierte Suche


Teilnahme von

Bertke, Ria


an Turnieren
 


 www.reitturnier-news.de

Gesucht wurde in reitturnier-news.de nach:


Reiter Pferde Ort
20.04 00:50:49 Michael POLLARD (USA)20.04 00:50:48 dream of hansen20.04 00:50:52 zeutern
20.04 00:50:45 Glunz, Rabea20.04 00:49:54 quex 920.04 00:50:50 dellbr
20.04 00:50:42 Melanie WILLIS (GBR)20.04 00:49:53 Dshamilja HR20.04 00:50:50 Münchhausen-Wollmar
20.04 00:50:32 schittenhelm silvia20.04 00:49:04 Ginger Rose20.04 00:50:48 Colbitz 02
20.04 00:49:30 Ovenhausen, J20.04 00:49:02 Call me Cassini20.04 00:50:43 Herrenberg g
20.04 00:49:24 Kikillus, Gabriele20.04 00:48:51 Nike von Sperberslohe20.04 00:50:41 Buttst
20.04 00:48:56 Konczak, Magdalena20.04 00:48:50 Lamarck 1120.04 00:50:39 reittunier r
20.04 00:48:18 kirsten warwas20.04 00:48:40 Laico 520.04 00:50:36 Marbach/ Lauter
20.04 00:48:15 Kaderk, Alexandra20.04 00:47:37 Contaro 520.04 00:50:20 ascania
20.04 00:47:52 Hoffmann-Maassen, Nina20.04 00:47:16 Windy s Joy20.04 00:50:07 Wildeshausen
20.04 00:47:36 plock frank20.04 00:46:57 Minou 6320.04 00:50:05 Dei
20.04 00:47:26 Nickolay, Norbert20.04 00:46:42 cheyenne 4420.04 00:50:04 winden
20.04 00:47:15 RFV Praest e. V.20.04 00:46:25 Dumbledore 2020.04 00:50:02 Imbringen Man
20.04 00:47:13 Stickling, Natalie20.04 00:46:01 Darki20.04 00:49:56 Brunsb ttel
20.04 00:47:12 Maria Kaldewei20.04 00:45:46 Pappa ante portas20.04 00:49:48 reittunier osnabr
20.04 00:46:53 Hannah MCINTYRE (GBR)20.04 00:45:45 Avia20.04 00:49:32 Waldbr
20.04 00:46:50 Rehage, Ena20.04 00:45:13 Akrobat 10020.04 00:49:30 haminkeln
20.04 00:46:47 Ruderer, Simone20.04 00:42:35 Hermes 12620.04 00:49:28 CSI Budapest
20.04 00:46:30 Bardutzky, Christina20.04 00:41:44 Carlos 61120.04 00:49:16 Jaderberg
20.04 00:46:22 Jody DARCY (AUS)20.04 00:41:33 Tiara 01420.04 00:49:07 NIDDA -
20.04 00:46:03 Hasse, Veronika20.04 00:41:09 Prince Saxany20.04 00:49:03 tunier anmeldung
20.04 00:46:04 Schumacher, Stine20.04 00:40:18 Stakkatos Stern 220.04 00:48:56 auatal rehren
20.04 00:45:54 stefanie englert20.04 00:40:03 dallas 4020.04 00:48:46 buchholz-
20.04 00:45:48 Landmann, Britta20.04 00:39:18 Free Naphtalin20.04 00:48:46 schwanzlhof
20.04 00:45:33 tino maschmeier20.04 00:38:19 Caruso K 220.04 00:48:44 Neu Isenburg
20.04 00:45:27 Anna GOBETTI (ITA)20.04 00:37:53 Wonderboy 2020.04 00:48:41 Luchm
20.04 00:45:25 Sickor, Sara20.04 00:37:21 Buena Vista 220.04 00:48:39 tunier Neuiosenburg
20.04 00:44:39 Antoni Calmon (FRA)20.04 00:37:00 High Fly 420.04 00:48:32 Hintertupfingen
20.04 00:44:18 sophia haschlar20.04 00:36:48 Feldlerche 820.04 00:48:22 freispringen singham
20.04 00:43:43 Mareike Suhr20.04 00:35:54 Royal Rose 1020.04 00:48:18 ewxixnhj
20.04 00:43:38 Runge, Klaus20.04 00:35:48 Doolittle 5920.04 00:48:10 Essen fischlaken
20.04 00:43:02 Schnieder, Marion20.04 00:35:44 Carl-Oskar20.04 00:48:04 n
20.04 00:42:51 katja mrowietz-wagner20.04 00:35:24 Bellevue C120.04 00:47:57 Berlin-Rudow
20.04 00:42:28 Noll, Nadine20.04 00:35:11 Charisma 16920.04 00:47:57 Kellinghusen
20.04 00:42:11 Seitz, Elena20.04 00:34:45 ykje evelien r20.04 00:47:54 Neuss -
20.04 00:42:03 Röbenack, Sabine20.04 00:34:45 Aragon AS20.04 00:47:45 br
20.04 00:40:48 Laura Barth20.04 00:33:32 guderian 1920.04 00:47:13 neumühle
20.04 00:40:35 Barbey, Charlotte20.04 00:33:26 Don Rudolfo OP20.04 00:47:11 Reitturnier lorch
20.04 00:40:20 RV Erding e.V20.04 00:31:01 medoc20.04 00:47:08 Tr
20.04 00:39:49 sarah gross20.04 00:30:35 Skywalker 6420.04 00:47:04 Pretzschendorf
20.04 00:39:43 Wagner, Tanja20.04 00:30:23 Whisky 30420.04 00:46:51 16.09.2011
20.04 00:39:33 Krohn, Karsten20.04 00:29:26 agropoint gigolo20.04 00:46:44 Dettingen am
20.04 00:39:07 Paulin, Tino20.04 00:29:24 Mykene20.04 00:46:25 Vlotho Exter
20.04 00:38:55 Meyer, Brigitte20.04 00:29:03 Grando 23520.04 00:45:39 Krefeld
20.04 00:38:58 jonas panje20.04 00:28:52 cloud w20.04 00:45:52 chur
20.04 00:38:55 Laura Kohlen20.04 00:28:47 Donatella C20.04 00:45:42 Aichet
20.04 00:38:52 Salverius, Hannah20.04 00:28:45 pandora 21220.04 00:45:39 Stemwede, Zw
20.04 00:38:44 Bianca Adams20.04 00:28:42 Caresse H20.04 00:45:38 ha
20.04 00:38:39 Benz, Linn20.04 00:28:40 Cookie 5320.04 00:45:37 Graben-Neudorf
20.04 00:37:38 NATALIA ALVAREZ (NAM)20.04 00:28:12 Chesterfield 1520.04 00:45:25 alsenborn
20.04 00:36:59 Frauenberger, Miriam20.04 00:27:58 Ramera 320.04 00:45:11 Vs Turnier
20.04 00:36:42 Radünz, Olaf20.04 00:27:49 Belina , Balou de20.04 00:44:50 krefelder stadtmeisterschaften
20.04 00:36:40 jan jungblut20.04 00:27:29 Azuro Grande20.04 00:44:49 frankenhard
20.04 00:35:33 rosenkränzer, Carolin20.04 00:26:46 coco chanel13720.04 00:44:41 WARTENBERG -
20.04 00:35:15 BENJAMIN GHELFI (FRA)20.04 00:26:12 laconda fr20.04 00:44:37 Kempersh
20.04 00:35:09 Moormann, Laura20.04 00:24:55 Lolitha M20.04 00:44:23 Ro
20.04 00:35:07 stroop, carola20.04 00:24:36 purple haze 220.04 00:44:21 lindenberger
20.04 00:34:58 Hesse,Geertje20.04 00:24:20 Cap Caniro20.04 00:44:17 Reitverein Venne
20.04 00:34:47 Eckmann, Klaus20.04 00:23:35 Aragon 23220.04 00:44:13 23.10
20.04 00:34:14 Neubert, Morena20.04 00:23:13 Tempico 2920.04 00:44:10 Korgau
20.04 00:33:54 Bungardt, Christin20.04 00:22:36 Sanloo T20.04 00:44:08 Moos Ndb
20.04 00:33:39 stockhammer-scheerer, michaela20.04 00:22:21 Mendocino 1320.04 00:44:07 Celje Slowenien
20.04 00:33:36 Nadine Michel20.04 00:21:19 De Vita 320.04 00:43:45 Reitturnier Eggermühlen
20.04 00:33:25 Kallfelz, Jens20.04 00:21:12 Coriana 2520.04 00:43:34 Kaarst-Büttgen
20.04 00:33:19 teichmann, lia eileen20.04 00:21:08 Cul20.04 00:43:08 Scheeßel
20.04 00:33:12 Eva Kragh PEDERSEN (DEN)20.04 00:20:42 frazer nahs20.04 00:43:08 altl
20.04 00:33:08 Laer, Nick van20.04 00:20:41 gadisch, graf grannus20.04 00:43:06 Strohtmann,
20.04 00:33:01 Maria Concepcion FERNANDEZ (UR20.04 00:19:59 conchitta 720.04 00:43:04 Hünstetten-Wallrabenstein
20.04 00:32:53 Wibranek, Kathleen20.04 00:19:51 Amedijk Isaak20.04 00:42:55 neuenstein
20.04 00:32:34 Christian MARINI (ITA)20.04 00:19:29 Atticus 1020.04 00:42:38 Rehnaer
20.04 00:32:29 Schulz, Anja20.04 00:19:14 Santana 90420.04 00:42:21 Hessen
20.04 00:32:24 Sonsbeck20.04 00:18:41 Winni Pooh 720.04 00:42:19 burgthann 2009
20.04 00:32:22 Lechtenberg, Runa Ellen20.04 00:17:39 agata christi 0220.04 00:42:17 Trier -
20.04 00:32:19 romina hoyzer20.04 00:16:52 Vivaldi 6220.04 00:42:06 villingendrf
20.04 00:31:44 Klenner, Birgit20.04 00:16:30 Rodrigo 8320.04 00:42:04 turnierdickenberg
20.04 00:31:41 Kratz, Vanessa20.04 00:16:29 Altesse20.04 00:41:16 gotzing
20.04 00:31:25 Naeve, Volkert20.04 00:16:12 faja20.04 00:41:13 Eppelneim
20.04 00:31:19 Anna Klein20.04 00:16:09 Dark Shadow 1820.04 00:41:11 gahlrn
20.04 00:31:12 Damaszek20.04 00:15:59 Panina20.04 00:41:10 Freden -
20.04 00:30:55 Salvatore VACIRCA (ITA)20.04 00:15:42 Acorado II20.04 00:41:07 Seeon, Gr
20.04 00:30:53 Sievers,Lisa20.04 00:15:22 Hindu20.04 00:40:51 Indoor brabant
20.04 00:30:51 Zienicke, Jara20.04 00:14:06 Chico s Ass20.04 00:40:49 Turnier Steinberg
20.04 00:30:31 Catherine Yen-Tung CHEW (SIN)20.04 00:14:01 Clay s Insider20.04 00:40:41 dm alsfeld
20.04 00:30:24 Kass, Martine20.04 00:13:59 raoul k20.04 00:40:38 marbach 5.
20.04 00:29:43 Sylvia Stumpf20.04 00:13:42 Black Rock H20.04 00:40:21 Hülsen/Aller
20.04 00:29:40 Gaus,Chantal20.04 00:13:39 Cosmic Clipper20.04 00:40:18 Waabs
20.04 00:29:30 Bauer, Judith20.04 00:13:26 Destiny 20320.04 00:40:17 lippborg unterberg
20.04 00:28:41 behling, franziska20.04 00:13:06 Hayden20.04 00:40:16 wald michelbach
20.04 00:28:35 rupp, jessica20.04 00:12:59 champion de Lys20.04 00:40:01 Hamminkeln-Br
20.04 00:28:30 klus, annelie20.04 00:12:28 Zara 8820.04 00:39:58 dickenberger Reitunier
20.04 00:28:22 drexhage mareike20.04 00:11:54 basko20.04 00:39:56 verbandsturnier
20.04 00:27:44 Hinze, Tobias20.04 00:11:29 Canto 1520.04 00:39:53 reitturnier illertissen
20.04 00:27:35 popp, anna20.04 00:11:19 Arc de luxiere20.04 00:39:34 Geroldsgr
20.04 00:27:30 Kummer, Hansj20.04 00:11:18 dolce mia20.04 00:39:32 HEiligenbronn
20.04 00:27:02 Sch20.04 00:11:12 Cecil Fox 220.04 00:39:23 bornheim -widdig
20.04 00:26:55 silkegreulich20.04 00:11:09 Jazz-Dance20.04 00:39:09 landesmeisterschaft ebensee
20.04 00:26:44 Peter Seidel20.04 00:11:07 Awispado20.04 00:39:06 Mount
20.04 00:26:14 JOAQUIN LARRAIN CODDOU (CHI)20.04 00:10:42 Zafran20.04 00:39:04 Montarbaur-Horressen
20.04 00:25:53 bernd fiand20.04 00:10:37 Cloud Number Nine20.04 00:39:02 Hofheim Taunus
20.04 00:25:51 Otterburig-G20.04 00:10:35 Natolia20.04 00:38:45 Hagen a.
20.04 00:25:34 Diez,20.04 00:10:32 Gabia la Grande L20.04 00:38:42 Bad wildungen
20.04 00:25:33 Sträter, Nicole20.04 00:10:24 Coco Jumbo 720.04 00:38:41 Sinzheim
20.04 00:25:17 Creytz Dr., Ariane von20.04 00:10:23 talina e20.04 00:38:40 Studentenreitturnier Ulm
20.04 00:25:30 Raschnewski, Petra20.04 00:09:53 Dornik s Donovan20.04 00:38:33 essen-dellwig
20.04 00:25:05 Schrade, Yasmin20.04 00:09:46 Quicklebendig20.04 00:38:31 Bonheiden Belgien
20.04 00:25:03 Kersch, Irmgard20.04 00:09:42 Renomme 620.04 00:38:27 scharnebeck
20.04 00:24:43 Moikow, Mona20.04 00:09:07 Schloß Altenhausen Constantin20.04 00:38:17 He
20.04 00:24:32 Melfsen, Ann-Kathrin20.04 00:08:18 Danny Cool20.04 00:37:56 kreis h
20.04 00:24:10 Rhiannon LEAK (NZL)20.04 00:08:14 Witney20.04 00:37:40 grosszimmern
20.04 00:24:03 franziska vogl20.04 00:08:13 Dundee Gold S20.04 00:37:38 14.9.2011
20.04 00:23:41 rieth, franziska-milena20.04 00:07:33 Florestine 520.04 00:37:30 Fuchshof HAsloh
20.04 00:23:36 eichenbühl20.04 00:07:33 elfentraum20.04 00:37:24 Büdingen -
20.04 00:23:36 Pisa, Lorena20.04 00:07:12 Glanzr20.04 00:37:19 schmaiienberg
20.04 00:23:28 Richard MÜHLBÖCK (AUT)20.04 00:07:10 taccetta20.04 00:37:18 Reit
20.04 00:23:27 Fiala, Vanessa20.04 00:06:59 Dorina 67620.04 00:37:16 Herrieden 2012
20.04 00:23:23 Didier CHEVILLARD (FRA)20.04 00:06:49 Baroncelli20.04 00:37:12 Heroldsberg-N
20.04 00:23:22 Freiin Grote, Antonia20.04 00:06:48 PAPA20.04 00:36:56 Landsberg 18.9.10
20.04 00:23:18 Grolik, Katharina20.04 00:06:23 bel eclat go20.04 00:36:55 Nordstetten-Horb
20.04 00:23:16 Seifried, Alicia20.04 00:06:20 Good Look 220.04 00:36:33 Reitturnier 7.8.2011
20.04 00:23:03 Emma SWADLO (GBR)20.04 00:05:09 Albertho20.04 00:36:30 Stilgel
20.04 00:22:18 Lahde, Friederike20.04 00:04:55 DSA Shirin ox20.04 00:36:28 reiturnier in
20.04 00:21:38 Julia KLATT (GER)20.04 00:04:53 Coronado 820.04 00:36:27 Bad Schönborn
20.04 00:21:30 Friedhoff, Victoria20.04 00:04:51 Calgary 2820.04 00:36:19 Wankum 26.05.2012
20.04 00:21:20 Forker,Anika20.04 00:04:46 Arkardo20.04 00:36:18 Luckau
20.04 00:21:16 Osteroth, Vivien-Julia20.04 00:04:37 loona petit grazil20.04 00:36:16 G
20.04 00:20:55 Uetzingen 0520.04 00:04:07 Mio 4620.04 00:36:15 Reiterhof Laurent
20.04 00:20:39 anke beck20.04 00:03:58 Cabon20.04 00:35:20 Flemming
20.04 00:20:28 bosse, nicolai20.04 00:03:32 Rex Ricardo20.04 00:35:19 aachen hanbruch
20.04 00:19:40 Lisa Seidel20.04 00:03:19 Giacomo 12020.04 00:35:13
20.04 00:19:16 Groß-Gazi, Mariam20.04 00:03:17 Captain Jack Sparrow 3420.04 00:35:04 RV D
20.04 00:19:13 Siekmann, Sören20.04 00:02:44 Undine20.04 00:34:56 weill
20.04 00:18:45 Bejgrowicz,20.04 00:02:40 sharlice20.04 00:34:47 Reittuniere in
20.04 00:18:43 Andrea Tebbel20.04 00:02:36 Ligretto20.04 00:34:45 Wolgast
20.04 00:18:37 Varelmann, Ines20.04 00:02:13 Curral20.04 00:34:44 kREIENSEN rITTERIRODE
20.04 00:18:27 Alli-Rose WILSON (AUS)20.04 00:02:00 Degedeng20.04 00:34:43 Enniger-Vorhelm
20.04 00:17:58 MOHD AIZAT ABDUL MALIK20.04 00:02:00 santiago 21920.04 00:34:42 Lohmar-Heide
20.04 00:17:56 Behrens, Marco20.04 00:01:45 Johnny Cash 320.04 00:34:39 Weißbach
20.04 00:17:45 almeida pavao, pedro20.04 00:01:37 Linsey 220.04 00:34:31 dormund-somborn
20.04 00:17:36 Müller,Enya20.04 00:01:06 Rubina 19920.04 00:33:45 Reitturnier Osterbrock
20.04 00:17:26 Rehkamp, Martina20.04 00:00:52 Curly Sue 7620.04 00:33:56 Korbach-lehlbach
20.04 00:17:28 Freudl, Serena20.04 00:00:08 Fermoso20.04 00:33:53 wettlkamp turnier
20.04 00:17:19 Middendorf, Martina19.04 23:59:54 Die-Da20.04 00:33:49 bad nauheim
20.04 00:17:02 Katja R19.04 23:59:51 SMA Milano20.04 00:33:36 turnier 2011
20.04 00:16:56 Eisfeld,19.04 23:59:01 Casanova 35420.04 00:33:36 spenge wallenbr
20.04 00:16:38 Lux,Thomas19.04 23:58:52 Tardresso20.04 00:33:34 Oberelchingen/Schw
20.04 00:16:31 Werden, Susanne19.04 23:57:57 Capitano D20.04 00:33:33 P
20.04 00:16:03 maximilian cordt19.04 23:57:18 le max20.04 00:33:30 Holzg
20.04 00:14:54 Roth, Virginie19.04 23:56:03 Prosecco 5620.04 00:33:28 Spiessen Elversberg
20.04 00:14:52 Steiner-Ridderskamp, Anja19.04 23:55:38 Carlson KC20.04 00:33:23 R
20.04 00:14:51 Pflüger, Michael19.04 23:55:16 Eddi 9020.04 00:33:16 EM in
20.04 00:14:38 Bonik,Isabelle19.04 23:54:41 Heavens Touch20.04 00:33:14 horst horstm
20.04 00:14:26 gutenberger, dr. andrea19.04 23:54:36 Ariella 3520.04 00:33:03 kupferzell-loecherholz
20.04 00:14:05 Tina Olerink19.04 23:53:13 Vanity Fair H20.04 00:33:02 Pennigb ttel
20.04 00:13:58 Terry SMITH (IRL)19.04 23:53:05 Statinus 220.04 00:32:59 vergleichs turniere
20.04 00:13:43 Gerber, Pia19.04 23:51:55 Galileo 8720.04 00:32:58 wuppertal reitturnier
20.04 00:12:54 Kaiser, Chantal19.04 23:51:26 Finesse 28620.04 00:32:55 Str
20.04 00:12:03 Mauruschat, Kim-Kira19.04 23:51:16 Weltenadel20.04 00:32:55 dressur nizza
20.04 00:11:54 Bonz, Antonia Maria19.04 23:51:14 Black Stone 220.04 00:32:28 St. Georgen
20.04 00:11:22 Kisko, Stephanie19.04 23:50:58 Catharina s Boy20.04 00:32:25 Ahrensb
20.04 00:11:02 uta romainschick19.04 23:49:39 Rousseau 5020.04 00:32:22 turnierlisgte k
20.04 00:10:49 mia-lucia soete19.04 23:48:31 Contendro Grande20.04 00:31:57 Ibbenb
20.04 00:10:47 sebastian rhode19.04 23:48:01 Galant20.04 00:31:53 Sulzbach
20.04 00:10:46 Kluike, Katja19.04 23:47:52 Chayenne 28620.04 00:31:41 maulbronn 18.09.2010
20.04 00:10:34 nicole hansen19.04 23:47:41 Golden-White Lady20.04 00:31:37 reitturnier h
20.04 00:10:32 Reckerzügl, Bianca19.04 23:47:37 Zantos20.04 00:31:31 ROSSDORF
20.04 00:10:28 katinka dietze19.04 23:47:36 Indiana Jones 2020.04 00:31:29 Tunier An
20.04 00:10:24 Schmitz, Sina19.04 23:46:57 Ubangi 220.04 00:31:27 westfalenhalle m
20.04 00:10:21 Parthe, Gisela19.04 23:45:03 a picolino20.04 00:31:27 Hofgut Laubenheimer
20.04 00:09:44 Jose RODRIGUEZ ZAMBONI (ARG)19.04 23:44:16 Tinka s Scarface20.04 00:31:21 22-24.8
20.04 00:09:35 Sieveneck, Annika19.04 23:44:01 Carlo L 220.04 00:31:00 KRONBERG /Schafhof
20.04 00:09:31 anett b19.04 23:43:34 Labamba 1820.04 00:30:56 Grafing-Aiterndorf
20.04 00:09:23 Leon THIJSSEN (NED)19.04 23:43:27 Asha 820.04 00:30:52 psg Traunstorf
20.04 00:09:18 Meilwes, Eileen19.04 23:43:06 Bellevue Cl20.04 00:30:29 Brietlingen
20.04 00:09:04 Maciej BURZA (POL)19.04 23:42:15 Durina20.04 00:30:21 ottobeur
20.04 00:08:52 Diez, Ramona19.04 23:42:14 Chagall 21520.04 00:30:18 eicheb
20.04 00:08:43 frank hartmann19.04 23:41:12 Dandy 47220.04 00:30:01 Gut Bohmerhof
20.04 00:08:35 George Anthony Alexandar (SRI)19.04 23:41:07 Rodess 220.04 00:30:00 babanhausen
20.04 00:08:12 Jens, Julia19.04 23:40:54 Iletta20.04 00:29:59 korbach lelbach
20.04 00:08:08 kalhammer Karl19.04 23:40:53 Cristaco R20.04 00:29:41 dressurturnier zierow
20.04 00:08:02 staiger oliver19.04 23:40:17 Michigan20.04 00:29:56 Pertenstein/.
20.04 00:08:00 Brauchle, Katharina19.04 23:39:53 Come Together T20.04 00:29:53 Reitturnier Wickenrodt
20.04 00:07:43 Möslang, Nadine19.04 23:39:53 call of duty20.04 00:29:51 herbstturnier waldhof
20.04 00:07:36 Birr, Yella19.04 23:39:36 Pacolino20.04 00:29:41 Behrendorf
20.04 00:07:35 Jasmin M19.04 23:39:32 Enzian 12120.04 00:29:41 turnier n
20.04 00:06:42 sindy krumbholz19.04 23:39:27 rubens venecento20.04 00:29:39 kreismeisterschaften 2010
20.04 00:06:24 Boschen, Petra19.04 23:39:11 Destiny20.04 00:29:38 mohritzburg
20.04 00:06:18 Joelle Heidemann19.04 23:38:56 anton frh20.04 00:29:36 tunnier 2012
20.04 00:06:16 Struckmann, Kirsten19.04 23:38:20 Don Feliciano20.04 00:29:11 Schl
20.04 00:06:12 Eva Niklova19.04 23:38:08 Fynn 3020.04 00:29:11 anja
20.04 00:05:54 von menges, joachim19.04 23:37:52 Discovery 3720.04 00:29:06 melle oldendorf
20.04 00:05:53 Schmid, Angelika19.04 23:36:43 Magic Montendra20.04 00:28:59 BAD
20.04 00:05:41 Hansche, Peter19.04 23:36:38 Pappa ante portas20.04 00:28:52 turnier Gro
20.04 00:05:38 Holly FRASER (USA)19.04 23:36:37 Whitney 19420.04 00:28:45 Reitturnier rehagen
20.04 00:05:07 Ehlers, Silke19.04 23:36:15 Dinero 1320.04 00:28:43 kalrlstadt-hesslar
20.04 00:04:59 Janina Iken19.04 23:35:01 Fideela20.04 00:28:43 krumbach tettnag
20.04 00:04:48 Grimm, Vivien19.04 23:33:54 paulchen 17020.04 00:28:32 Lagg
20.04 00:04:46 Strecker19.04 23:33:32 Scarlett 52320.04 00:28:27 TAUNUSSTEIN
20.04 00:04:42 Kemke, Shirley19.04 23:31:48 astor 35420.04 00:28:25 Reitturnier 22.05.2011
20.04 00:04:39 Mattheis, Christiane19.04 23:29:49 Panama 9120.04 00:28:22 Rehagen 2012
20.04 00:04:35 corinna dieck19.04 23:28:44 Nikis Nougat20.04 00:28:22 Bad F
20.04 00:04:32 Severin Nicole19.04 23:27:52 Linie20.04 00:28:03 Siegen-dreisbach
20.04 00:04:18 Lena M19.04 23:27:08 Never Last20.04 00:28:02 scharmeloh
20.04 00:04:16 dierks, carsten19.04 23:26:43 Chantal 21420.04 00:28:02 Birkenhof Eppingen
20.04 00:04:10 Viktoria TEVELL (SWE)19.04 23:25:50 sarotti20.04 00:27:57 Karlstein-Gro
20.04 00:04:04 sonja dodt19.04 23:25:48 Stella S 220.04 00:27:33 Wolfsburg
20.04 00:04:00 Tielemann, Rabea19.04 23:25:02 La Camisa Negra20.04 00:27:50 Bretzenheim
20.04 00:03:53 Hollmann,19.04 23:24:44 Don Pepe 1320.04 00:27:46 national
20.04 00:03:51 Adelinde CORNELISSEN (NED)19.04 23:24:07 Darwina 1320.04 00:27:37 classic
20.04 00:03:30 jochen meinks19.04 23:23:24 Zannschein20.04 00:27:35 sittensen 2010
20.04 00:03:28 juliane frotscher19.04 23:22:59 Miss Champagne20.04 00:27:25 erbes-b
20.04 00:03:24 Groninger, Florian19.04 23:22:34 Cassada 620.04 00:27:24 Bundeswettkampg vielseitigkeit
20.04 00:03:22 wesseler, silvia19.04 23:21:45 Flammenfee20.04 00:27:21 Harbarnsen
20.04 00:03:12 Alyssa PHILLIPS (USA)19.04 23:21:35 Zunamy20.04 00:27:19 z
20.04 00:02:58 Seher,anne19.04 23:21:15 Bangkok G20.04 00:27:15 kreuth
20.04 00:02:42 Mario CUTOLO (ITA)19.04 23:18:55 Delkana20.04 00:27:11 jever
20.04 00:02:38 Seher, Anne19.04 23:18:51 Deja-vu 2520.04 00:27:09 Bitburg-M
20.04 00:02:36 Helga KNAUER (GER)19.04 23:17:51 Hötzenhof Nouster20.04 00:27:04 Bad Kreuznach-
20.04 00:02:15 Flunkert, Ramona19.04 23:17:23 Wytens20.04 00:27:01 Stadthagen
20.04 00:02:14 Schange, Bodo19.04 23:17:14 Campino 32220.04 00:27:01 k
20.04 00:02:02 paul van wylick19.04 23:16:14 Castana 420.04 00:26:53 Theisau7
20.04 00:01:52 Bao Ying Feng19.04 23:16:02 Henkel20.04 00:26:52 arensfelde 21.07.
20.04 00:01:47 Bischoff, Jennifer19.04 23:15:49 Coldplay 1620.04 00:26:48 Bad Berleburg-Schwarzenau
20.04 00:01:19 Riesenbeck, Isabel19.04 23:15:35 Quentchen Gl20.04 00:26:38 tschechien reitturnier
20.04 00:01:15 Jana Göllner19.04 23:15:27 Laturo 220.04 00:26:28 bialy
20.04 00:01:12 sandra pfennig19.04 23:15:19 Calle Cool 2020.04 00:26:26 Reitturnier St
20.04 00:00:25 MATHIEU LHUILLIER (FRA)19.04 23:14:46 trojan20.04 00:26:18 6 febuar
20.04 00:00:19 Hauser, Sandy19.04 23:13:32 Quintina Z20.04 00:26:17 Berlin -
20.04 00:00:10 Stephanie Maier19.04 23:13:31 La petite Fleur 320.04 00:26:16 RV Vordorf-
19.04 23:59:39 Christiansen, Levke19.04 23:12:53 Strahlemann 1020.04 00:26:12 RFV Darmstadt-Arheiligen
19.04 23:59:26 veneta morische19.04 23:11:57 Wyona 4220.04 00:26:05 fissau
19.04 23:58:39 Grziwa, Lena19.04 23:11:53 ramonn de la moure20.04 00:25:37 voltigierturnier
19.04 23:58:35 Jawurek, Vera19.04 23:10:52 Ehrens best emely20.04 00:25:37 Deutsche Reitpferdepr
19.04 23:58:33 Knoll, Charlie19.04 23:09:32 whig flanery20.04 00:25:35 achen
19.04 23:58:27 Tuttaß, Melina19.04 23:09:30 Ramadan 3720.04 00:25:31 Wilbringen
19.04 23:57:43 Christian D19.04 23:09:27 Delightful Lady20.04 00:25:30 lvm
19.04 23:57:17 Stephan DUBSKY (GER)19.04 23:09:15 Con Champ20.04 00:25:30 bruchköbel-roßdorf
19.04 23:57:07 Garcia, Paula Rodriguez19.04 23:08:20 Coco Caccio20.04 00:25:21 st lln
19.04 23:57:00 Nicole Maier19.04 23:07:29 Rubinio K20.04 00:25:20 Wohlesbostel
19.04 23:56:47 schubert saskia19.04 23:06:17 Diamond Blue 420.04 00:25:09 eckardtsberga
19.04 23:56:34 Soldan, Tina19.04 23:05:52 Duke of Dark Velvet20.04 00:25:08 Reitturnier K
19.04 23:56:24 Beuth, Sarah-Susann19.04 23:05:41 Alila20.04 00:24:56 ebensee
19.04 23:56:10 Eckert, Britt Carolin19.04 23:03:24 Ninja 8320.04 00:24:55 kandern tannenkirch
19.04 23:55:58 Tschee, Josephine19.04 23:03:14 Gundel20.04 00:24:55 karben
19.04 23:55:48 Ricarda Pianca19.04 23:02:59 Maverick H20.04 00:24:54 w
19.04 23:55:46 fleuster, rita19.04 23:02:17 Moses Boy20.04 00:24:45 Gro0 L
19.04 23:55:34 Skeirek, Dania19.04 23:00:58 Faible de Nadine20.04 00:24:14 Telgte 2012
19.04 23:55:32 COLLEEN MCBRIDE (USA)19.04 23:00:44 Romello 320.04 00:24:13 bagminton
19.04 23:55:19 tutass melina19.04 23:00:29 Schiwago 14920.04 00:24:09 Schwarzhöfe/Opf
19.04 23:55:24 Pieler, Maiva19.04 22:58:29 Nostra20.04 00:24:04 Niederseeon/Obb.
19.04 23:55:19 Kaiser Maria19.04 22:58:11 Congarde VF20.04 00:24:03 coesfeld lette
19.04 23:55:06 Schlesinger, Ute19.04 22:57:34 Adriano 21120.04 00:24:00 Reitturnier Tannenhof
19.04 23:55:00 Heugen, Viktoria19.04 22:57:20 Royal mira20.04 00:23:46 stecklenberg
19.04 23:54:44 Marion Hodek19.04 22:56:52 ggn acorados ass20.04 00:23:44 reitturnier bl
19.04 23:54:37 Grebenstein, Claudia19.04 22:56:06 Akim-W20.04 00:23:43 Wentof 06-08.2013
19.04 23:54:30 tina werner19.04 22:54:57 Escada 12220.04 00:23:43 Maimarkt Mannheim
19.04 23:54:28 Grun, Severine19.04 22:54:49 Romeo 56820.04 00:23:40 mihla 2011
19.04 23:53:40 Etmann, Jana19.04 22:53:44 Fatalis20.04 00:23:37 Grandprix
19.04 23:53:37 Lauk, Mariett19.04 22:53:40 Stakkato Special20.04 00:23:32 Nienburg 2010
19.04 23:53:24 Huissel, Katharina19.04 22:53:35 belana bcf20.04 00:23:23 St. Sebastian
19.04 23:52:31 Tara DAVIS (USA)19.04 22:53:27 Cheenooks20.04 00:23:16 koblenz-metternich2010
19.04 23:52:07 Vicki KILLEN (GBR)19.04 22:53:07 Fantus 2020.04 00:22:48 heufelden
19.04 23:52:05 Schnurbusch, Anna19.04 22:52:57 Comtessa Piccolina20.04 00:22:35 kerpen weiler
19.04 23:51:50 Schermer, Ute19.04 22:52:53 Estefania 1020.04 00:22:14 machow
19.04 23:51:30 Shannon WARD (USA)19.04 22:52:24 quantensprung20.04 00:22:13 Hambr
19.04 23:51:18 kurtscheidt, laura19.04 22:52:06 Calinka 1820.04 00:22:07 gl
19.04 23:51:09 nadine kracht19.04 22:51:53 Askarino J20.04 00:22:05 Gnsefurt
19.04 23:50:26 Peter Opper19.04 22:51:46 Curley Sue 2520.04 00:22:03 klein-partwitz
19.04 23:50:21 Neumann-Cosel, Anna Katharina von19.04 22:50:55 falke20.04 00:21:57 14.11.2010 hamburg
19.04 23:50:08 Brauckm19.04 22:50:30 Comic van de Vihta20.04 00:21:45 krefeld 1.5.2011
19.04 23:49:41 Ledwig, Ramona19.04 22:50:23 Nuncio 320.04 00:21:43 Isny Rohrdorf
19.04 23:49:33 Krog, Beke von19.04 22:50:10 maybach 620.04 00:21:39 reitturnier usingen
19.04 23:49:29 Florence STASZKOW (FRA)19.04 22:49:16 bernsees bairna20.04 00:21:26 Fränkisch-Crumbach
19.04 23:49:28 lena sennekamp19.04 22:48:48 lianos20.04 00:20:44 05.10.2012 Gro
19.04 23:49:25 Stephen WAY (AUS)19.04 22:47:46 Alyon20.04 00:20:37 reitturnier birkenhof
19.04 23:49:04 Buder, Petra19.04 22:47:40 Corianus20.04 00:20:33 Turnier M
19.04 23:48:57 Wildgruber, Ulrike19.04 22:47:16 Cool Concerto20.04 00:20:29 oberpfalz
19.04 23:48:54 Altun, Melike19.04 22:47:05 Gianna Luca 220.04 00:20:26 Gosposgr
19.04 23:48:41 sarah geringhoff19.04 22:46:33 ftp20.04 00:20:10 beedenbotel
19.04 23:48:38 Simon-Sch19.04 22:46:14 Chesterfield 1520.04 00:20:07 Seehausen Fl
19.04 23:48:18 Fabian BOCK (GER)19.04 22:44:54 rocky 126520.04 00:20:06 RV Kamen
19.04 23:48:04 Freifrau von Strachwitz, Marion19.04 22:44:26 Alfredo 3920.04 00:19:53 halftenkamp
19.04 23:47:51 Hodde, Dina19.04 22:44:21 Drip Drop Rainbow20.04 00:19:44 springpferdetag
19.04 23:47:32 Bogdol, Kim Michelle19.04 22:44:13 Dancer W20.04 00:19:43 tangstedter ruzv
19.04 23:47:19 Paisen,Cerrin Catharina19.04 22:44:11 Duchesse 14720.04 00:19:38 pertenstein obb
19.04 23:47:09 Kahnau, Ann-Sophie19.04 22:43:42 Happiness 3220.04 00:19:35 drevenack
19.04 23:46:42 Beinlich, Nicole19.04 22:42:31 desigual 320.04 00:19:33 zeven
19.04 23:46:37 oelerich, meike19.04 22:42:31 Coco H20.04 00:19:16 Schwaiganger/Obb.
19.04 23:46:09 mira wein19.04 22:40:23 fiona20.04 00:19:06 Thüringer Landesmeisterschaft
19.04 23:46:06 meike jansen19.04 22:39:46 designual 320.04 00:18:52 s
19.04 23:46:05 welcome grandissimo19.04 22:39:37 Dolce Vita 16720.04 00:18:51 Luhm
19.04 23:46:03 michaela saalow19.04 22:39:36 Hegelhof s Elma20.04 00:18:50 helbra
19.04 23:45:47 Jacek BOBIK (POL)19.04 22:39:31 Capt20.04 00:18:48 Zweibr
19.04 23:45:18 von Buttlar, Charlotte19.04 22:39:08 Lucky 122020.04 00:18:46 bremen huchtingen
19.04 23:44:45 bremer, jan-eric19.04 22:38:52 give me five 320.04 00:18:46 2011-08-07
19.04 23:44:35 Gaston CHELIUS (LUX)19.04 22:38:38 Giglbergs Jaspis20.04 00:18:43 uetz 2011
19.04 23:44:29 Arnold, Marcus19.04 22:37:13 Diorello 420.04 00:18:34 frankenburg 2011
19.04 23:44:18 Quittkat, Laura19.04 22:35:47 Dream Girl 4520.04 00:18:33 Tuniere im
19.04 23:44:08 Chiara Luciana VILLANI (ITA)19.04 22:35:17 Morning Star 3720.04 00:18:31 Dinslaken-Hiesfeld
19.04 23:43:57 Struck, Angela19.04 22:34:39 champion de Lys20.04 00:18:29 Turnier Rhede
19.04 23:43:39 Buch, Felix19.04 22:34:30 ramino 7920.04 00:18:27 Falkenhof lindlar
19.04 23:43:21 krumbholz, sindy19.04 22:34:22 Pretty Woman20.04 00:18:24 Tangstedt ergebnisse
19.04 23:43:15 Isabell Pudenz19.04 22:34:21 Gina von Grannenfels20.04 00:18:09 reitverein J
19.04 23:43:03 Ellger, Heike19.04 22:34:14 Chipollino20.04 00:17:58 Stadl Paura(AUT)
19.04 23:42:52 Schwenker, S19.04 22:33:19 Ave Arthemis xx20.04 00:17:57 München-Riem
19.04 23:42:49 alice schwerk19.04 22:33:18 Chicago 11820.04 00:17:46 Bremen Schwanewede
19.04 23:42:45 Zartenar, Hendrick19.04 22:33:13 dolce mia20.04 00:17:33 Lage-Pottenhausen
19.04 23:42:16 Wahler, Theresa19.04 22:32:56 Gentille Madame20.04 00:17:25 Fontainebleau/FRA
19.04 23:42:11 schütte,lena19.04 22:32:48 Lukow20.04 00:17:17 Groß Schönebeck
19.04 23:42:11 kai stalberg19.04 22:32:09 Duke 27420.04 00:17:16 hochdorf
19.04 23:42:10 Gedick, Jessica19.04 22:31:45 Black Jack 20620.04 00:17:04 pl
19.04 23:42:02 Traub, Annkatrin19.04 22:31:22 Coronado-K20.04 00:16:58 erkrath unterfeldhaus
19.04 23:41:35 pens tanja19.04 22:29:59 Marisa T20.04 00:16:52 Wei
19.04 23:41:21 Kutscheid, Teresa19.04 22:29:44 Holsteins Newcomer20.04 00:16:36 neheim-h
19.04 23:41:03 Uwe SCHMITZ (GER)19.04 22:27:12 roger 4220.04 00:16:23 Unna
19.04 23:40:49 Richter, Luisa19.04 22:26:29 Dinero 1420.04 00:16:14 Vordorf 2009
19.04 23:40:20 Silke Nessler19.04 22:26:19 Sandro Reinhardt20.04 00:16:02 Handorf Marlisenhof
19.04 23:40:07 Heubrock, Anne19.04 22:26:00 Calotta Caramba K20.04 00:15:57 Kreismeisterschaft im
19.04 23:40:04 Evertz, Svenja19.04 22:25:28 marianne20.04 00:15:56 Ausschreibungen f
19.04 23:40:02 mara pommerin19.04 22:25:10 Quivive 620.04 00:15:55 Meppen H
19.04 23:39:48 Normajean LELL19.04 22:25:05 Crazy Los Angeles20.04 00:15:47 Hamburgervderby 2013
19.04 23:39:44 Fronzeck, Carina19.04 22:24:48 Liberty Queen20.04 00:15:38 Jungpferde Wittenberg
19.04 23:39:04 Jenny H19.04 22:24:36 Los Angeles 1320.04 00:15:37 kunersdorf
19.04 23:38:47 Ossenbeck, Jonna19.04 22:24:27 Baykal220.04 00:15:36 Krefeld K
19.04 23:38:28 Hinterthaner, Mariella19.04 22:24:16 Elsehoeve s Kandar20.04 00:15:26 tunier t
19.04 23:38:26 Maike Magnussen19.04 22:23:21 sunny 62020.04 00:15:23 Kl.
19.04 23:38:16 Hufendiek, Mara19.04 22:23:18 landf20.04 00:15:23 Wenholthausen
19.04 23:38:11 Ina-Marie HAU (GER)19.04 22:22:51 Whajana20.04 00:15:11 Alt
19.04 23:38:06 Metzen, Tanja19.04 22:22:50 Quicklebendig20.04 00:15:08 8
19.04 23:37:57 juliette schuth19.04 22:22:08 Cassja20.04 00:15:02 friedberg 27.05.10
19.04 23:37:39 silvia Zeyn19.04 22:21:34 abigale 1020.04 00:15:01 gueglingen
19.04 23:37:32 Muschweck, Anna19.04 22:21:18 Cookie 5320.04 00:14:56 fahrtunier h
19.04 23:37:28 Wedekind, Stella-Luisa19.04 22:20:25 Coole Socke20.04 00:14:46 holte-spangen
19.04 23:37:07 Schwenk, Anjouly Sharin19.04 22:18:43 Lortzing 2520.04 00:14:35 Krautheim
19.04 23:36:58 Westerdorf, Anna-Lena19.04 22:18:09 Cryptic Moon20.04 00:14:28 brelinger
19.04 23:36:39 Kyra Sachau19.04 22:18:04 Sun of Jamaica20.04 00:14:25 Mosbach
19.04 23:36:31 Seitter, Julia19.04 22:17:23 Champ of Class 220.04 00:14:24 inWolnzach
19.04 23:35:55 Masan, Sandra19.04 22:16:10 Little Dreamer20.04 00:14:20 ueberherrn
19.04 23:35:43 Caterina MOTTA (ITA)19.04 22:15:47 Landcapitol20.04 00:14:09 2006
19.04 23:35:33 siemers, sandra19.04 22:15:42 ronald II20.04 00:14:07 Wiesb,-Erbenheim
19.04 23:35:31 Schoon, Talika19.04 22:15:39 Sten20.04 00:14:04 neunkirchen vörden
19.04 23:35:18 withopf, marina19.04 22:15:34 Fritz20.04 00:14:04 reittunier lobberich
19.04 23:34:48 Kühner, Katrin19.04 22:14:57 viva 2620.04 00:14:02 Reitverein H
19.04 23:34:18 Khan,Rebecca19.04 22:14:28 Rossini 23120.04 00:13:59 bad kreuznach
19.04 23:34:04 Schäfer, Herbert19.04 22:14:04 bel eclat go20.04 00:13:55 Bonn Rodderberg
19.04 23:33:47 Kohn, Sylvia19.04 22:13:47 Cednik20.04 00:13:34 220613
19.04 23:33:30 alisa schwind19.04 22:13:33 Cash Man20.04 00:13:20 dressurturnier nebanic
19.04 23:33:10 Wiechner, Michaela19.04 22:12:19 Aida S20.04 00:13:18 kreismeisterschaft h
19.04 23:32:35 Guldi, Jaqueline19.04 22:11:39 Candice 1720.04 00:13:16 Wippertf
19.04 23:32:11 jan zbed19.04 22:11:23 Ed Eskadron20.04 00:13:14 ruf landenhausesn
19.04 23:32:06 Roos, Nathalie19.04 22:11:10 Las Vegas 15720.04 00:13:12 nordenham
19.04 23:32:05 Angermaier, Stefanie19.04 22:10:51 Jamboree 820.04 00:13:09 fuchsjagd malmsheim
19.04 23:31:58 ilka geiss19.04 22:10:22 Filou 171920.04 00:13:08 wagh
19.04 23:31:40 Greve, Lena-Marie19.04 22:09:57 famous boy 820.04 00:13:07 klasse
19.04 23:31:09 Marilena Keller19.04 22:09:39 Lady 67820.04 00:13:04 katzenelnbogen
19.04 23:31:08 von Kleist, Luisa19.04 22:07:29 Golden little Pimboli20.04 00:13:01 Bad Lauchst
19.04 23:30:33 Burkhart, Lea19.04 22:06:32 Lemon Tree 4120.04 00:12:54 phillippsburg
19.04 23:30:29 kowalsky, kai19.04 22:05:46 Caminho20.04 00:12:48 Reitturnier L
19.04 23:30:01 Daldrop, Deike19.04 22:05:01 LSD S20.04 00:12:46 Mertingen 03.07.2010
19.04 23:29:58 Munz, Silke19.04 22:04:56 Smoky S20.04 00:12:42 fredenbeck
19.04 23:29:42 Keller, Katharina19.04 22:04:09 scarlet20.04 00:12:18 Klettgau B
19.04 23:29:25 borns michaela19.04 22:03:53 Aquilina 1220.04 00:12:17 Halberstadt 2011
19.04 23:29:19 voet, friederike19.04 22:03:23 haminu20.04 00:12:12 Willich -
19.04 23:29:08 Carole BALIAN (FRA)19.04 22:03:06 Con Amore 1120.04 00:11:56 rybnica
19.04 23:28:49 Natalie heger19.04 22:02:45 Corleograf20.04 00:11:56 gu
19.04 23:28:40 Dreher, Nicole19.04 22:02:30 Witney20.04 00:11:53 Scholven
19.04 23:28:13 Kappl,19.04 22:02:16 Donatella C20.04 00:11:40 Hallentunier
19.04 23:28:11 Weberchen, Jessica19.04 22:01:55 Carat 10920.04 00:11:38 viernheim 2011
19.04 23:28:05 nina moritz19.04 22:01:32 Desmond W20.04 00:11:38 tunier klein
19.04 23:27:40 Raili, Nicole19.04 22:01:21 Le Ducati20.04 00:11:32 wesel obringhoven
19.04 23:27:27 teutonia mcf19.04 22:01:09 Cumerio20.04 00:11:30 pratschke,
19.04 23:26:36 gogolka, tabea19.04 22:01:01 Dancing Lady 1420.04 00:11:18 Dortmund-S
19.04 23:26:36 Voigt, Frauke19.04 22:00:48 Dark Diamant 320.04 00:11:16 13.05.12 Ein
19.04 23:26:07 Hums, Anja19.04 21:59:48 Ciane20.04 00:11:07 gutenberg
19.04 23:25:57 Autmaring,Louis Friedrich19.04 21:59:28 Chacco-Lina20.04 00:10:57 Harmelen
19.04 23:25:40 Jesse Akers (USA)19.04 21:59:17 Casano 420.04 00:10:45 fonteinbl
19.04 23:25:31 thomas stahl19.04 21:57:15 montana 24420.04 00:10:45 maasen
19.04 23:25:18 Vivian Göpfert19.04 21:56:21 Dreamcatcher 1120.04 00:10:25 heiderreiterspiele
19.04 23:25:04 bjorn claus19.04 21:55:09 Westpoint20.04 00:10:18 reitturnier reuthen
19.04 23:24:45 Vogt, Natascha19.04 21:53:21 Larina N20.04 00:09:55 wahlitz
19.04 23:24:32 AHMAD MAKKI (KSA)19.04 21:53:11 Don Benito 3720.04 00:09:51 am malbauer
19.04 23:24:20 LUIS MIGUEL MARTINEZ SEIJAS19.04 21:52:43 Fairbanks G20.04 00:09:48 vielseitigkeit korte
19.04 23:24:15 Ziske, Henry19.04 21:52:27 Fleur Noir 1320.04 00:09:47 landesmeisterschaften
19.04 23:24:12 Melissa HUNSBERGER (USA)19.04 21:52:25 suerte blanca20.04 00:09:46 straubings
19.04 23:24:02 uwe aldinger19.04 21:51:58 shasa20.04 00:09:43 Jugendringturnier wetzlar
19.04 23:23:51 wiegand burkhart19.04 21:50:44 Power Flower S20.04 00:09:39 Neckarbischofsheim- Helmhoff
19.04 23:23:50 Oberst, Marcella19.04 21:50:39 Daytime20.04 00:09:29 Grumbach-Wilsdruff
19.04 23:23:50 francesca matuschka greiffenclau19.04 21:49:48 Asperia 220.04 00:09:27 Reitturnier Rastede
19.04 23:23:35 zick zack19.04 21:49:15 Colt20.04 00:09:20 Vechta 09.11.2014
19.04 23:23:11 Atabay, Milena19.04 21:48:55 Hennessy 5420.04 00:08:45 Gem
19.04 23:23:07 pedde, eike19.04 21:48:48 Chiara 5320.04 00:08:43 Au/Hallertau
19.04 23:23:04 radlsbeck,allegra19.04 21:47:23 Vitocelli20.04 00:08:38 hittbergeb 25.7.2010
19.04 23:22:56 Ellen Bötzel19.04 21:44:04 so special20.04 00:08:37 27.08.11
19.04 23:22:55 Thies, Simone19.04 21:43:59 Raikja M20.04 00:08:24 rsg sonnefeld
19.04 23:22:22 Nüßing, Marc19.04 21:43:08 Zaubermaus 2020.04 00:08:22 Festhallenturnier
19.04 23:22:15 Dmitriy SHLEPNJOV (RUS)19.04 21:42:24 Fritz Freudentanz20.04 00:08:20 Reittunier Reitanlage
19.04 23:21:50 Kovacs, Enikö Nicoletta19.04 21:40:55 E Nomine 220.04 00:08:19 zeiteinteilung dom
19.04 23:21:50 marianne demandt19.04 21:40:43 Canto 1520.04 00:08:17 reittunier ellingen
19.04 23:21:16 uwe klugmann ptussendorf19.04 21:40:42 blumenstein20.04 00:08:17 ilsffeld
19.04 23:21:05 Noriko HASEGAWA (AUS)19.04 21:40:31 Franklyn 1020.04 00:08:13 Reitturnier nutteln
19.04 23:20:50 Sina Beuck19.04 21:40:27 Any von Kielsl20.04 00:07:58 bl